Portland Troutdale, OR

12:02 AM PDT on June 24, 2017 (GMT -0700)
Portland-Troutdale

Weather History for KTTD - March, 2014

Change the Weather History Date:

Saturday, March 1, 2014

  Actual Average Record
Temperature  
Mean Temperature 40 °F 45 °F  
Max Temperature 48 °F 53 °F 64 °F (1968)
Min Temperature 32 °F 37 °F 26 °F (1971)
Degree Days  
Heating Degree Days 25 20  
Month to date heating degree days 25 20  
Cooling Degree Days 0 0  
Month to date cooling degree days 0 0  
Moisture  
Dew Point 29 °F    
Average Humidity 73    
Maximum Humidity 89    
Minimum Humidity 56    
Precipitation  
Precipitation 0.03 in 0.16 in 2.03 in (1999)
Month to date precipitation 0.03 0.16  
Year to date precipitation 6.09 11.43  
Sea Level Pressure  
Sea Level Pressure 29.71 in    
Wind  
Wind Speed 23 mph (East)    
Max Wind Speed 32 mph    
Max Gust Speed 39 mph    
Visibility 9 miles    
Events Rain    
T = Trace of Precipitation, MM = Missing Value Source: NWS Daily Summary

Daily Weather History Graph

Daily Weather History Graph

Search for Another Location

Airport or City:

Trip Planner

Search our weather history database for the weather conditions in past years. The results will help you decide how hot, cold, wet, or windy it might be!

Date:

Astronomy

Mar. 01, 2014 Rise Set
Actual Time 6:47 AM PST 5:56 PM PST
Civil Twilight 6:18 AM PST 6:26 PM PST
Nautical Twilight 5:43 AM PST 7:00 PM PST
Astronomical Twilight 5:09 AM PST 7:35 PM PST
Moon 6:42 AM PST (3/1) 6:55 PM PST (3/1)
Length of Visible Light 12h 08m
Length of Day
11h 08m
New Moon, 0% of the Moon is Illuminated
Mar 1
New Moon
Mar 8
First Quarter
Mar 16
Full
Mar 23
Last Quarter
Mar 30
New

Hourly Weather History & Observations

Time (PST) Temp. Windchill Dew Point Humidity Pressure Visibility Wind Dir Wind Speed Gust Speed Precip Events Conditions
12:53 AM 46.9 °F - 34.0 °F 61% 29.51 in 10.0 mi East 19.6 mph - N/A   Overcast
1:53 AM 46.9 °F - 34.0 °F 61% 29.53 in 10.0 mi East 17.3 mph - N/A   Overcast
2:53 AM 48.0 °F - 34.0 °F 58% 29.54 in 10.0 mi East 17.3 mph - N/A   Overcast
3:53 AM 46.9 °F - 34.0 °F 61% 29.55 in 10.0 mi East 17.3 mph 26.5 mph N/A   Overcast
4:53 AM 46.9 °F - 34.0 °F 61% 29.57 in 10.0 mi East 18.4 mph - N/A   Overcast
5:53 AM 45.0 °F 37.1 °F 32.0 °F 60% 29.60 in 10.0 mi East 19.6 mph - N/A   Overcast
6:53 AM 43.0 °F 34.0 °F 30.0 °F 60% 29.62 in 10.0 mi East 21.9 mph 31.1 mph N/A   Overcast
7:53 AM 41.0 °F 30.9 °F 28.9 °F 62% 29.66 in 10.0 mi East 24.2 mph 33.4 mph N/A   Overcast
8:53 AM 37.9 °F 26.8 °F 28.9 °F 70% 29.69 in 10.0 mi East 24.2 mph 32.2 mph 0.00 in Rain Light Rain
9:53 AM 37.0 °F 25.4 °F 28.0 °F 70% 29.71 in 9.0 mi East 25.3 mph - 0.00 in Rain Light Rain
10:53 AM 35.1 °F 22.7 °F 28.0 °F 76% 29.73 in 10.0 mi East 25.3 mph 31.1 mph 0.00 in   Overcast
11:41 AM 35.1 °F 22.7 °F 28.9 °F 78% 29.74 in 9.0 mi East 25.3 mph 33.4 mph 0.00 in   Overcast
11:53 AM 35.1 °F 22.5 °F 28.0 °F 76% 29.74 in 8.0 mi East 26.5 mph 32.2 mph 0.00 in Rain Light Rain
12:19 PM 35.1 °F 22.7 °F 28.9 °F 78% 29.74 in 10.0 mi East 25.3 mph 33.4 mph 0.00 in   Overcast
12:33 PM 35.1 °F 23.0 °F 28.9 °F 78% 29.74 in 9.0 mi East 24.2 mph 34.5 mph 0.00 in Rain Light Rain
12:53 PM 34.0 °F 21.8 °F 28.9 °F 82% 29.74 in 3.0 mi East 23.0 mph 33.4 mph 0.00 in Rain Light Rain
1:53 PM 34.0 °F 21.3 °F 30.0 °F 85% 29.74 in 6.0 mi East 25.3 mph 33.4 mph 0.01 in   Overcast
2:53 PM 34.0 °F 21.5 °F 30.0 °F 85% 29.74 in 10.0 mi East 24.2 mph 36.8 mph 0.00 in   Overcast
3:53 PM 34.0 °F 21.5 °F 28.9 °F 82% 29.74 in 10.0 mi East 24.2 mph 35.7 mph 0.00 in   Overcast
4:53 PM 34.0 °F 21.0 °F 28.9 °F 82% 29.75 in 5.0 mi East 26.5 mph 33.4 mph 0.00 in   Haze
5:53 PM 34.0 °F 20.8 °F 28.9 °F 82% 29.74 in 10.0 mi East 27.6 mph 34.5 mph N/A   Overcast
6:53 PM 34.0 °F 21.0 °F 28.0 °F 79% 29.75 in 10.0 mi East 26.5 mph 36.8 mph N/A   Overcast
7:53 PM 34.0 °F 21.3 °F 27.0 °F 75% 29.76 in 10.0 mi East 25.3 mph 34.5 mph N/A   Overcast
8:53 PM 33.1 °F 20.9 °F 28.0 °F 82% 29.77 in 10.0 mi East 21.9 mph 34.5 mph N/A   Overcast
9:14 PM 33.1 °F 20.1 °F 28.0 °F 82% 29.77 in 5.0 mi East 25.3 mph 36.8 mph 0.00 in Rain Light Freezing Rain
9:53 PM 32.0 °F 18.6 °F 28.0 °F 85% 29.78 in 7.0 mi East 25.3 mph 35.7 mph 0.00 in Rain Light Freezing Rain
10:09 PM 32.0 °F 19.8 °F 28.0 °F 85% 29.78 in 10.0 mi ENE 20.7 mph 35.7 mph 0.00 in   Overcast
10:28 PM 32.0 °F 19.5 °F 28.0 °F 85% 29.77 in 9.0 mi East 21.9 mph 32.2 mph 0.00 in Rain Light Freezing Rain
10:53 PM 32.0 °F 19.5 °F 28.0 °F 85% 29.78 in 4.0 mi East 21.9 mph 31.1 mph 0.02 in Rain Light Freezing Rain
11:06 PM 32.0 °F 19.2 °F 28.0 °F 85% 29.78 in 8.0 mi East 23.0 mph 31.1 mph 0.00 in   Overcast
11:16 PM 32.0 °F 19.2 °F 28.0 °F 85% 29.78 in 8.0 mi East 23.0 mph 31.1 mph 0.00 in Rain Light Freezing Rain
11:23 PM 33.1 °F 21.5 °F 28.0 °F 82% 29.78 in 10.0 mi East 19.6 mph 32.2 mph 0.00 in   Overcast
11:53 PM 32.0 °F 19.8 °F 28.0 °F 85% 29.78 in 8.0 mi East 20.7 mph 31.1 mph 0.00 in   Overcast